Regional Weather Roundup
Issued by NWS

Home | Current Version | Previous Version | Graphics & Text | Print | Product List | Glossary On
Versions: 1 2 3 4 5 6 7 8 9 10 11 12 13 14 15 16 17 18 19 20 21 22 23 24 25 26 27 28 29 30 31 32 33 34 35 36 37 38 39 40 41 42 43 44 45 46 47 48 49 50
000
ASUS43 KLOT 060912
RWRIL

ILLINOIS REGIONAL WEATHER ROUNDUP
NATIONAL WEATHER SERVICE CHICAGO/ROMEOVILLE IL
400 AM CDT MON JUL 06 2015

NOTE: "FAIR" INDICATES FEW OR NO CLOUDS BELOW 12,000 FEET WITH NO
SIGNIFICANT WEATHER AND/OR OBSTRUCTIONS TO VISIBILITY.

* THESE STATIONS ARE NOT UNDER NWS QUALITY CONTROL. THEY ALSO MAY NOT
  REPORT WEATHER SUCH AS PRECIPITATION OR FOG.

ILZ001-002-007-009-015-016-024-061000-
NORTHWEST ILLINOIS

CITY           SKY/WX    TMP DP  RH WIND       PRES   REMARKS
MOLINE         MOCLDY    71  66  84 S8        29.94F HAZE
STERLING*      CLEAR     66  63  88 SE6       29.96F
SAVANNA*       MOCLDY    67  64  90 S7        29.94F FOG
$$

ILZ003-004-008-010-011-017-018-061000-
NORTH CENTRAL ILLINOIS

CITY           SKY/WX    TMP DP  RH WIND       PRES   REMARKS
ROCKFORD       PTCLDY    66  62  87 S7        29.98F
FREEPORT*      PTCLDY    65  63  93 S9        29.97F FOG
ROCHELLE*      CLEAR     63  62  97 S7        29.99F FOG
DE KALB*       CLEAR     61  60  95 S7        30.00F FOG
PERU*          CLEAR     67  62  85 S5        30.00F HAZE
$$

ILZ005-006-012>014-019>023-061000-
NORTHEAST ILLINOIS

CITY           SKY/WX    TMP DP  RH WIND       PRES   REMARKS
CHICAGO-OHARE  PTCLDY    66  62  87 W3        30.01F
CHICAGO-MIDWAY CLEAR     71  64  78 SE6       30.01F
AURORA         CLEAR     65  60  84 CALM      30.02S HAZE
LANSING*       CLEAR     65  60  86 S3        30.02F
JOLIET*        CLEAR     66  65  97 CALM      30.02S FOG
WAUKEGAN       CLEAR     63  60  90 S6        29.98F
DUPAGE AIRPORT CLEAR     64  61  90 CALM      30.01F FOG
KANKAKEE*      CLEAR     66  64  94 SE3       30.03S FOG
WHEELING       CLEAR     66  61  84 S5        30.01F
MORRIS*        CLEAR     65  63  93 SE3       30.00S FOG
ROMEOVILLE*    CLEAR     65  62  90 S5        30.02S FOG
NORTHERLY ISL    N/A     70  62  76 S5          N/A
$$

LMZ740>746-061000-
SOUTHERN LAKE MICHIGAN

STATION/POSITION SKY/WX   TEMP    WIND        PRES    VSBY  WAVE
                          AIR SEA DIR/SP/G                  HT/PER
                          (F)     (DEG/KT/KT) (MB)    (MI)  (FT/S)
HARRISON CRIB              72     200/  9/ 10   N/A
BURNHAM HARBOR             70     190/  6/  7   N/A
CALUMET HARBOR             70     200/  2/  3   N/A
BURNS HARBOR               70     180/  7/ 12 1016.9S
MICHIGAN CITY              69     150/  9/ 12   N/A
MICHIGAN CITY 6N           67 66  190/  6/  8   N/A           1
ST. JOSEPH                 67 65  220/  8/ 10   N/A           1
$$

ILZ025>027-034>036-040-047-049-050-058-095>099-061000-
WEST-CENTRAL ILLINOIS

CITY           SKY/WX    TMP DP  RH WIND       PRES   REMARKS
QUINCY         CLEAR     73  70  90 S9        29.96S
GALESBURG*     PTCLDY    68  65  92 SE5       29.97F FOG
MACOMB*        MOCLDY    68  67  97 S5        29.99F FOG
JACKSONVILLE*  MOCLDY    73  69  88 SE3       29.98F FOG
PITTSFIELD*    CLEAR     70  67  92 CALM      29.99F FOG
$$

ILZ028>032-037-038-041>044-048-051>054-059>061-061000-
CENTRAL ILLINOIS

CITY           SKY/WX    TMP DP  RH WIND       PRES   REMARKS
PONTIAC        CLEAR     63  63  99 SE5       30.02S FOG
BLOOMINGTON    CLEAR     66  64  93 SW7       30.03S
DECATUR        CLEAR     63  60  90 SE3       30.02S
PEORIA         CLEAR     71  64  78 S7        29.98F
LACON*         CLEAR     67  63  85 SE3       29.99S
LINCOLN*       CLEAR     66  63  89 CALM      30.02R FOG
SPRINGFIELD    CLEAR     71  66  84 S7        30.01R
TAYLORVILLE    CLEAR     64  63  94 S3        30.01S FOG
$$

ILZ033-039-045-046-055>057-062-063-061000-
EAST-CENTRAL ILLINOIS

CITY           SKY/WX    TMP DP  RH WIND       PRES   REMARKS
CHAMPAIGN      CLEAR     65  64  97 S5        30.03S FOG
DANVILLE*      CLEAR     63  63  98 CALM      30.01S FOG
RANTOUL*       CLEAR     65  64  96 SE3       30.03S FOG
MATTOON        CLEAR     66  65  96 S3        30.03R FOG
PARIS*           N/A     66  66  99 S3        30.05R FOG
$$

ILZ079-100>102-061000-
SOUTHWEST ILLINOIS

CITY           SKY/WX    TMP DP  RH WIND       PRES   REMARKS
ALTON          CLEAR     67  67 100 CALM      30.01R FOG
BELLEVILLE     PTCLDY    68  68 100 S2        30.00R
CAHOKIA*       CLEAR     70  67  90 CALM      30.00R FOG
SPARTA*        CLEAR     71  68  91 S3        30.02S
$$

ILZ064>066-069>071-074>076-080>082-084>086-088>090-092>094-061000-
SOUTH-CENTRAL ILLINOIS

CITY           SKY/WX    TMP DP  RH WIND       PRES   REMARKS
CARBONDALE     PTCLDY    70  67  90 MISG      30.03R FOG
CAIRO*         PTCLDY    74  73  95 SW6       30.03S
EFFINGHAM*     CLEAR     66  63  92 CALM      30.05R FOG
MARION         PTCLDY    70  68  94 S3        30.04R FOG
MT. VERNON     MOCLDY    66  61  82 CALM      30.04R
CENTRALIA*     CLEAR     67  64  91 E3        30.03R FOG
SALEM*         MOCLDY    71  68  90 CALM      30.03R FOG
$$

ILZ067-068-072-073-078-083-087-091-061000-
SOUTHEAST ILLINOIS

CITY           SKY/WX    TMP DP  RH WIND       PRES   REMARKS
LAWRENCEVILLE  CLEAR     68  66  93 E5        30.04R FOG
FLORA*         CLEAR     65  65  98 CALM      30.04R FOG
FAIRFIELD*     MOCLDY    68  67  99 CALM      30.03R FOG
HARRISBURG*    CLEAR     67  67 100 CALM      30.04S FOG
ROBINSON*      CLEAR     67  66  96 CALM      30.05R FOG
CARMI*         FOG       67  63  87 CALM      30.03R VSB<1/4
$$

ABBREVIATIONS USED IN REMARKS
   TC - TEMPERATURE IN CELSIUS
  WCI - WIND CHILL INDEX
   HX - HEAT INDEX
  VSB - VISIBILITY
$$



USA.gov is the U.S. government's official web portal to all federal, state and local government web resources and services.